When you browse on this site, cookies collect data to enhance your experience and personalize the content and advertising you see.
Visit our Privacy Policy to learn more. By continuing to use the site, you agree to this use of cookies and data.
  • En España
  • Lista de países
  • Para 7 días
  • Temperatura del agua
  • Mapa Satelital
  • El tiempo en el mapa
  • Informadores
  • user-avatar
    Iniciar sesión

    Tiempo cada hora Oran

    Hoy, 21 Julio, Domingo

    Tiempo Temperatura Precipitaciones Viento Presión Humedad
    00:00 +26°C° 0 mm 3 mps 751 mmHg 84%
    01:00 +26°C° 0 mm 3 mps 751 mmHg 85%
    02:00 +26°C° 0 mm 3 mps 751 mmHg 87%
    03:00 +26°C° 0 mm 4 mps 750 mmHg 88%
    04:00 +26°C° 0 mm 3 mps 751 mmHg 87%
    05:00 +26°C° 0 mm 3 mps 751 mmHg 85%
    06:00 +26°C° 0 mm 2 mps 751 mmHg 83%
    07:00 +27°C° 0 mm 2 mps 752 mmHg 77%
    08:00 +28°C° 0 mm 2 mps 752 mmHg 71%
    09:00 +29°C° 0 mm 2 mps 752 mmHg 65%
    10:00 +31°C° 0 mm 2 mps 752 mmHg 61%
    11:00 +33°C° 0 mm 3 mps 752 mmHg 57%
    12:00 +34°C° 0 mm 4 mps 752 mmHg 53%
    13:00 +34°C° 0 mm 4 mps 752 mmHg 54%
    14:00 +33°C° 0 mm 3 mps 751 mmHg 54%
    15:00 +33°C° 0 mm 3 mps 751 mmHg 55%
    16:00 +33°C° 0 mm 3 mps 752 mmHg 56%
    17:00 +32°C° 0 mm 2 mps 752 mmHg 57%
    18:00 +32°C° 0 mm 2 mps 752 mmHg 57%
    19:00 +31°C° 0 mm 2 mps 752 mmHg 62%
    20:00 +30°C° 0 mm 1 mps 753 mmHg 66%
    21:00 +29°C° 0 mm 1 mps 753 mmHg 70%
    22:00 +28°C° 0 mm 1 mps 753 mmHg 73%
    23:00 +28°C° 0 mm 2 mps 753 mmHg 75%

    Mañana, 22 Julio, Lunes

    Tiempo Temperatura Precipitaciones Viento Presión Humedad
    00:00 +27°C° 0 mm 2 mps 753 mmHg 77%
    01:00 +27°C° 0 mm 2 mps 753 mmHg 80%
    02:00 +27°C° 0 mm 2 mps 752 mmHg 83%
    03:00 +26°C° 0 mm 2 mps 752 mmHg 86%
    04:00 +26°C° 0 mm 2 mps 752 mmHg 84%
    05:00 +27°C° 0 mm 1 mps 752 mmHg 83%
    06:00 +27°C° 0 mm 1 mps 752 mmHg 81%
    07:00 +28°C° 0 mm 1 mps 753 mmHg 73%
    08:00 +30°C° 0 mm 2 mps 753 mmHg 65%
    09:00 +32°C° 0 mm 2 mps 753 mmHg 56%
    10:00 +34°C° 0 mm 3 mps 753 mmHg 52%
    11:00 +35°C° 0 mm 4 mps 753 mmHg 47%
    12:00 +37°C° 0 mm 5 mps 753 mmHg 42%
    13:00 +37°C° 0 mm 5 mps 752 mmHg 43%
    14:00 +36°C° 0 mm 6 mps 752 mmHg 44%
    15:00 +36°C° 0 mm 6 mps 751 mmHg 45%
    16:00 +35°C° 0 mm 6 mps 751 mmHg 47%
    17:00 +34°C° 0 mm 6 mps 751 mmHg 49%
    18:00 +33°C° 0 mm 6 mps 751 mmHg 52%
    19:00 +33°C° 0 mm 5 mps 751 mmHg 51%
    20:00 +32°C° 0 mm 4 mps 752 mmHg 51%
    21:00 +31°C° 0 mm 2 mps 752 mmHg 50%
    22:00 +30°C° 0 mm 3 mps 752 mmHg 58%
    23:00 +29°C° 0 mm 4 mps 752 mmHg 67%

    Pasado mañana, 23 Julio, Martes

    Tiempo Temperatura Precipitaciones Viento Presión Humedad
    00:00 +27°C° 0 mm 5 mps 751 mmHg 75%
    01:00 +27°C° 0 mm 4 mps 751 mmHg 74%
    02:00 +27°C° 0 mm 3 mps 751 mmHg 74%
    03:00 +27°C° 0 mm 2 mps 750 mmHg 73%
    04:00 +27°C° 0 mm 2 mps 750 mmHg 72%
    05:00 +27°C° 0 mm 2 mps 750 mmHg 72%
    06:00 +27°C° 0 mm 2 mps 750 mmHg 72%
    07:00 +29°C° 0 mm 2 mps 750 mmHg 63%
    08:00 +31°C° 0 mm 1 mps 751 mmHg 54%
    09:00 +33°C° 0 mm 1 mps 751 mmHg 45%
    10:00 +36°C° 0 mm 2 mps 751 mmHg 40%
    11:00 +38°C° 0 mm 2 mps 750 mmHg 35%
    12:00 +39°C° 0 mm 3 mps 750 mmHg 31%
    13:00 +40°C° 0 mm 4 mps 750 mmHg 33%
    14:00 +40°C° 0 mm 4 mps 749 mmHg 34%
    15:00 +39°C° 0 mm 5 mps 749 mmHg 36%
    16:00 +37°C° 0 mm 5 mps 749 mmHg 38%
    17:00 +36°C° 0 mm 4 mps 749 mmHg 40%
    18:00 +35°C° 0 mm 4 mps 749 mmHg 42%
    19:00 +34°C° 0 mm 3 mps 749 mmHg 44%
    20:00 +32°C° 0 mm 2 mps 749 mmHg 46%
    21:00 +31°C° 0 mm 1 mps 750 mmHg 49%
    22:00 +29°C° 0 mm 2 mps 750 mmHg 58%
    23:00 +28°C° 0 mm 3 mps 750 mmHg 68%

    24 Julio, Miércoles

    Tiempo Temperatura Precipitaciones Viento Presión Humedad
    00:00 +27°C° 0 mm 3 mps 749 mmHg 77%
    01:00 +26°C° 0 mm 3 mps 749 mmHg 78%
    02:00 +26°C° 0 mm 2 mps 749 mmHg 79%
    03:00 +26°C° 0 mm 1 mps 749 mmHg 81%
    04:00 +26°C° 0 mm 1 mps 749 mmHg 80%
    05:00 +26°C° 0 mm 1 mps 749 mmHg 79%
    06:00 +26°C° 0 mm 1 mps 749 mmHg 79%
    07:00 +28°C° 0 mm 1 mps 749 mmHg 70%
    08:00 +30°C° 0 mm 1 mps 750 mmHg 62%
    09:00 +31°C° 0 mm 1 mps 750 mmHg 53%
    10:00 +34°C° 0 mm 2 mps 750 mmHg 49%
    11:00 +36°C° 0 mm 2 mps 750 mmHg 44%
    12:00 +37°C° 0 mm 2 mps 749 mmHg 40%
    13:00 +37°C° 0 mm 3 mps 749 mmHg 39%
    14:00 +38°C° 0 mm 4 mps 749 mmHg 39%
    15:00 +38°C° 0 mm 4 mps 749 mmHg 38%
    16:00 +37°C° 0 mm 4 mps 748 mmHg 40%
    17:00 +36°C° 0 mm 4 mps 748 mmHg 41%
    18:00 +35°C° 0 mm 5 mps 748 mmHg 42%
    19:00 +34°C° 0 mm 4 mps 748 mmHg 45%
    20:00 +33°C° 0 mm 3 mps 749 mmHg 48%
    21:00 +31°C° 0 mm 3 mps 749 mmHg 51%
    22:00 +30°C° 0 mm 2 mps 749 mmHg 59%
    23:00 +28°C° 0 mm 2 mps 749 mmHg 66%

    25 Julio, Jueves

    Tiempo Temperatura Precipitaciones Viento Presión Humedad
    00:00 +27°C° 0 mm 2 mps 748 mmHg 73%
    01:00 +27°C° 0 mm 2 mps 748 mmHg 77%
    02:00 +26°C° 0 mm 2 mps 748 mmHg 80%
    03:00 +26°C° 0 mm 2 mps 748 mmHg 84%
    04:00 +26°C° 0 mm 3 mps 748 mmHg 84%
    05:00 +26°C° 0 mm 3 mps 749 mmHg 84%
    06:00 +26°C° 0 mm 3 mps 749 mmHg 83%
    07:00 +27°C° 0 mm 3 mps 749 mmHg 75%
    08:00 +29°C° 0 mm 3 mps 750 mmHg 67%
    09:00 +30°C° 0 mm 3 mps 750 mmHg 59%
    10:00 +31°C° 0 mm 3 mps 750 mmHg 55%
    11:00 +33°C° 0 mm 3 mps 750 mmHg 51%
    12:00 +35°C° 0 mm 4 mps 750 mmHg 47%
    13:00 +35°C° 0 mm 3 mps 749 mmHg 45%
    14:00 +35°C° 0 mm 3 mps 749 mmHg 43%
    15:00 +36°C° 0 mm 3 mps 749 mmHg 41%
    16:00 +35°C° 0 mm 2 mps 749 mmHg 43%
    17:00 +34°C° 0 mm 2 mps 749 mmHg 44%
    18:00 +34°C° 0 mm 2 mps 749 mmHg 46%
    19:00 +32°C° 0 mm 2 mps 749 mmHg 51%
    20:00 +30°C° 0 mm 2 mps 749 mmHg 55%
    21:00 +29°C° 0 mm 2 mps 750 mmHg 60%
    22:00 +28°C° 0 mm 2 mps 750 mmHg 64%
    23:00 +27°C° 0 mm 2 mps 750 mmHg 69%

    26 Julio, Viernes

    Tiempo Temperatura Precipitaciones Viento Presión Humedad
    00:00 +27°C° 0 mm 2 mps 750 mmHg 73%
    01:00 +26°C° 0 mm 2 mps 750 mmHg 74%
    02:00 +26°C° 0 mm 2 mps 750 mmHg 75%
    03:00 +26°C° 0 mm 2 mps 749 mmHg 75%
    04:00 +26°C° 0 mm 2 mps 750 mmHg 72%
    05:00 +27°C° 0 mm 1 mps 750 mmHg 70%
    06:00 +27°C° 0 mm 1 mps 750 mmHg 67%
    07:00 +29°C° 0 mm 2 mps 750 mmHg 57%
    08:00 +31°C° 0 mm 3 mps 751 mmHg 47%
    09:00 +34°C° 0 mm 4 mps 751 mmHg 37%
    10:00 +35°C° 0 mm 4 mps 751 mmHg 34%
    11:00 +36°C° 0 mm 5 mps 751 mmHg 30%
    12:00 +38°C° 0 mm 6 mps 751 mmHg 26%
    13:00 +38°C° 0 mm 6 mps 751 mmHg 27%
    14:00 +37°C° 0 mm 5 mps 750 mmHg 27%
    15:00 +37°C° 0 mm 5 mps 750 mmHg 27%
    16:00 +36°C° 0 mm 5 mps 750 mmHg 30%
    17:00 +35°C° 0 mm 4 mps 750 mmHg 32%
    18:00 +34°C° 0 mm 4 mps 749 mmHg 34%
    19:00 +33°C° 0 mm 3 mps 750 mmHg 38%
    20:00 +30°C° 0 mm 3 mps 750 mmHg 43%
    21:00 +29°C° 0 mm 2 mps 750 mmHg 47%
    22:00 +29°C° 0 mm 2 mps 750 mmHg 48%
    23:00 +28°C° 0 mm 2 mps 750 mmHg 48%
    Mostrar más